Other Surface Observations
Issued by NWS Charleston, SC

Home | Current Version | Previous Version | Text Only | Print | Product List | Glossary On
Versions: 1 2 3 4 5 6 7 8 9 10 11 12 13 14 15 16 17 18 19 20 21 22 23 24 25 26 27 28 29 30 31 32 33 34 35 36 37 38 39 40 41 42 43 44 45 46 47 48 49 50
828
SXUS52 KCHS 221612
OSOCHS

MARINE OBSERVATIONS
NATIONAL WEATHER SERVICE CHARLESTON SC
1200 PM EDT FRI MAY 22 2015

...DOWNTOWN CHARLESTON AND HARBOR...

CITY           SKY/WX    TMP DP  RH WIND       PRES   REMARKS
WATERFRONT PRK   N/A     72  58  61 N10       30.13R
FORT JOHNSON   NOT AVBL

...LAKE MOULTRIE...

CITY           SKY/WX    TMP DP  RH WIND       PRES   REMARKS
PINOPOLIS      NOT AVBL

...LAKE AND SUPPLEMENTAL COASTAL OBSERVATIONS...

STATION/POSITION TIME  TEMP    WIND        PRES    WAVE   SWELL
                       AIR SEA DIR/SP/G            HT/PER HT/PER/DIR
                 (UTC) (F)     (DEG/KT/KT) (MB)    (FT/S) (FT/S/D)
FORT PULASKI     1500   71 78   50/ 17/ 22 1021.2R
SAPELO ISLAND    1500   76     350/  6     1020.0S
UPR LAKE MARION  NOT AVBL
WINYAH BAY       NOT AVBL
LAKE MURRAY      1500   67      20/  3/ 10 1022.4R
ACE BASIN NERRS  NOT AVBL


...C-MAN AND BUOY OBSERVATIONS...

STATION/POSITION TIME  TEMP    WIND        PRES    WAVE   SWELL
                       AIR SEA DIR/SP/G            HT/PER HT/PER/DIR
                 (UTC) (F)     (DEG/KT/KT) (MB)    (FT/S) (FT/S/D)
BUOY 41004       1550   69 76   30/ 19/ 23 1019.6R   6/ 6   2/10
BUOY 41008       1550   73 77   70/ 14/ 17 1020.5R   2/ 4
FOLLY BEACH CMAN 1600   70      50/ 14/ 17 1021.6R
CAPERS NS BUOY   1508   69      40/ 17/ 23 1021.3R
FRIPP NS BUOY    1500   71      50/ 17/ 19 1020.3R
5E ST. MARYS GA  1521      77                N/A     2/ 4


STATION/POSITION TIME  TEMP    WIND        PRES    WAVE   SWELL
                       AIR SEA DIR/SP/G            HT/PER HT/PER/DIR
                 (UTC) (F)     (DEG/KT/KT) (MB)    (FT/S) (FT/S/D)
FRYING PAN BUOY  1550   68 74   40/ 17/ 21 1021.2R   5/ 6
BUOY 41025       1550   62 76   10/ 12/ 17 1020.9R   5/ 7   3/ 40/ 7
CAPE LOOKOUT NC  1600   65      10/ 10/ 12 1021.2R
BUOY 41002       1550   74 75   50/ 16/ 19 1018.4R   4/ 6   3/240/ 6
BUOY 41010       1520   81 80  320/  8/ 10 1018.5R
ST AUGUSTINE FL  1600   72 74  360/ 14/ 15 1021.0R

$$



USA.gov is the U.S. government's official web portal to all federal, state and local government web resources and services.